Probability
0 0 0 0 0 0 0 0 0 0 0 0 0 0 0 0 0 0 0 1 3 2 1 0 0 0 1 0 0 0 2 4 2 0 0 0 0 0 0 0 0 0 0
0 0 0 0 0 0 0 0 0 0 0 0 0 0 0 0 0 0 0 0 1 1 1 1 0 1 2 1 0 0 2 4 2 0 0 0 0 0 0 0 0 0 0
0 0 0 0 0 0 0 0 0 0 0 0 0 0 0 0 0 0 0 0 0 0 1 2 1 2 3 2 0 0 2 2 1 0 0 0 0 0 0 0 0 0 0
0 0 0 0 0 0 0 0 0 0 0 0 0 0 0 0 0 0 0 0 0 0 1 2 2 4 5 3 1 0 0 0 0 0 0 0 0 0 0 0 0 0 0
0 0 0 0 0 0 0 0 0 0 0 0 0 0 0 0 0 0 0 0 0 0 0 1 1 3 4 3 1 0 0 0 0 0 0 0 0 0 0 0 0 0 0
0 0 0 0 0 0 0 0 0 0 0 0 0 0 0 0 0 0 0 0 0 0 0 0 0 1 2 1 0 0 0 0 0 0 0 0 0 0 0 0 0 0 0
0 0 0 0 0 0 0 0 0 0 0 0 0 0 0 0 0 0 0 0 0 0 0 0 0 0 0 0 0 0 0 0 0 0 0 0 0 0 0 0 0 0 0
4 2 1 0 0 0 0 0 0 0 0 0 0 0 0 0 0 0 0 0 0 0 0 0 0 0 0 0 0 0 0 0 0 1 1 1 0 0 0 0 0 0 0
11 7 2 0 0 0 0 0 0 0 0 0 0 0 0 0 0 0 0 0 0 0 0 0 0 0 0 0 0 0 0 0 0 1 1 1 0 0 0 0 0 0 0
14 9 3 0 0 0 0 0 0 0 0 0 0 0 0 0 0 0 0 0 0 0 0 0 0 0 0 0 0 0 0 1 1 1 1 0 0 0 0 0 0 0 0
12 13 12 9 5 1 0 0 0 0 0 0 0 0 0 0 0 0 0 0 0 0 0 0 0 0 0 0 0 0 0 1 2 1 0 0 0 0 0 0 0 0 0
9 13 17 15 9 3 1 0 0 0 0 0 0 0 0 0 0 0 0 0 0 0 0 0 0 0 0 0 0 0 0 1 1 1 0 0 0 0 0 0 0 0 0
3 6 8 8 5 2 2 2 0 0 0 0 0 0 0 0 0 0 0 0 0 0 0 0 0 0 0 0 0 0 0 0 0 0 0 0 0 0 0 0 0 0 0
0 0 0 0 0 0 2 2 1 0 0 0 0 0 0 0 0 0 0 0 0 0 0 0 0 0 0 0 0 0 0 0 0 0 0 0 0 0 0 0 0 0 0
0 0 0 0 0 0 0 1 0 0 0 0 0 0 0 0 0 0 0 0 0 0 0 0 0 0 0 0 0 0 0 0 0 0 0 0 0 0 0 0 0 0 0
0 0 0 0 0 0 0 0 0 0 0 0 0 0 0 0 0 0 0 0 0 0 0 0 0 0 0 0 0 0 0 0 0 0 0 0 0 0 0 0 0 0 0
0 0 0 0 0 0 0 0 0 0 0 0 0 0 0 0 0 0 0 0 0 0 0 0 0 0 0 0 0 0 0 0 0 0 0 0 0 0 0 0 0 0 0
0 0 0 0 0 0 0 0 0 0 0 0 0 0 0 0 0 0 0 0 0 0 0 0 0 0 0 0 0 0 0 0 0 0 0 0 0 0 0 0 0 0 0
0 0 0 0 0 0 0 0 0 0 0 0 0 0 0 0 0 0 0 0 0 0 0 0 0 0 0 0 0 0 0 0 0 0 0 0 0 0 0 0 0 0 0
0 0 0 0 0 0 0 0 0 0 0 0 0 0 0 0 0 0 0 0 0 0 0 0 0 0 0 0 0 0 0 0 0 0 0 0 0 0 0 0 0 0 0
0 0 0 0 0 0 0 0 0 0 0 0 0 0 0 0 0 0 0 0 0 0 0 0 0 0 0 0 0 0 0 0 0 0 0 0 0 0 0 0 0 0 0
0 0 0 0 0 0 0 0 0 0 0 0 0 0 0 0 0 0 0 0 0 0 0 0 0 0 0 0 0 0 0 0 0 0 0 0 0 0 0 0 0 0 0
0 0 0 0 0 0 0 0 0 0 0 0 0 0 0 0 0 0 0 0 0 0 0 0 0 0 0 0 0 0 0 0 0 0 0 0 0 0 0 0 0 0 0
0 0 0 0 0 0 0 0 0 0 0 0 0 0 0 0 0 0 0 0 0 0 0 0 0 0 0 0 0 0 0 0 0 0 0 0 0 0 0 0 0 0 0
0 0 0 0 0 0 0 0 0 0 0 0 0 0 0 0 0 0 0 0 0 0 0 0 0 0 0 0 0 0 0 0 0 0 0 0 0 0 0 0 0 0 0
0 0 0 0 0 0 0 0 0 0 0 0 0 0 0 0 0 0 0 0 0 0 0 0 0 0 0 0 0 0 0 0 0 0 0 0 0 0 0 0 0 0 0
Wind_Speed
3 3 3 3 2 2 2 3 4 4 4 5 4 4 5 6 5 4 5 14 17 17 18 18 20 20 19 17 16 16 17 16 14 13 14 14 13 12 10 9 8 8 7
3 3 3 3 3 4 5 4 4 3 3 2 2 1 2 3 4 5 4 7 15 18 19 20 19 20 21 21 20 18 18 17 15 14 15 14 13 13 11 10 10 9 7
5 4 4 3 4 4 3 2 2 1 1 1 2 2 2 2 4 4 4 4 6 12 18 19 18 18 21 21 22 20 19 17 15 14 15 14 13 12 12 12 11 10 8
6 5 4 3 2 3 3 2 2 1 1 2 2 2 3 3 4 4 4 4 4 5 10 17 17 16 19 21 23 23 22 19 15 15 15 15 14 12 12 12 12 11 9
6 5 4 4 4 4 2 2 2 1 1 2 3 2 3 3 3 3 4 4 4 4 4 10 15 16 17 18 19 22 21 17 14 16 15 14 13 13 13 13 11 10 9
4 5 4 3 4 3 2 2 2 2 2 2 1 1 2 2 1 2 3 4 4 4 4 4 5 8 14 14 14 15 14 14 15 18 17 15 14 15 14 12 10 9 8
3 5 3 3 3 4 5 5 3 2 2 1 1 1 3 3 2 2 2 3 3 4 4 4 3 3 5 9 8 9 10 15 17 19 17 16 16 15 14 13 11 10 9
4 5 5 4 4 3 4 4 3 2 2 3 2 0 2 3 3 2 3 3 3 2 2 2 3 2 3 2 5 8 11 17 21 19 17 15 14 14 14 13 12 11 9
7 6 5 4 3 3 4 4 4 4 3 3 3 2 1 3 2 3 3 3 3 2 2 2 2 2 2 1 4 9 12 12 17 18 16 14 12 12 13 14 13 11 9
6 6 5 5 3 2 3 4 4 3 3 2 2 4 3 2 1 3 3 3 3 2 2 1 2 3 3 2 4 8 11 9 11 13 13 11 10 11 13 14 13 12 11
2 3 4 5 4 3 3 4 3 3 3 3 2 1 1 2 1 1 3 3 3 3 2 1 1 2 2 2 1 6 7 4 4 7 8 7 9 11 13 13 13 13 12
3 4 4 3 2 2 3 4 4 4 4 2 2 2 2 2 1 2 1 1 2 3 3 2 1 1 1 2 2 8 8 4 3 5 6 6 7 10 13 14 14 14 12
2 2 2 1 1 1 2 3 3 4 3 3 3 2 2 2 2 1 1 1 1 3 3 2 2 0 0 1 3 7 3 2 1 3 5 7 8 10 13 15 15 14 13
1 1 2 2 2 2 3 2 2 4 3 4 5 4 3 3 1 2 2 2 1 3 2 3 2 2 1 2 3 6 2 4 5 5 6 7 9 11 12 13 13 12 12
1 1 1 2 2 3 2 1 2 4 4 3 4 5 4 3 3 1 2 3 2 2 3 3 2 2 2 2 3 3 2 5 9 9 9 10 12 12 12 11 10 10 11
1 0 1 2 3 4 5 3 2 4 3 3 3 4 4 2 3 1 2 2 2 2 1 1 2 2 2 2 2 2 3 6 8 10 12 12 11 11 11 11 10 12 12
2 2 3 3 4 3 3 2 3 4 1 2 3 4 4 3 3 3 3 2 2 2 2 1 2 3 3 1 1 0 1 2 4 9 11 11 12 12 13 13 13 12 10
3 3 3 3 3 2 2 2 2 2 3 2 2 3 3 3 3 3 3 3 2 2 3 2 2 3 5 2 1 1 2 3 4 7 11 12 13 12 12 13 12 12 12
4 3 3 3 4 3 3 3 2 2 3 4 2 2 2 1 1 1 3 3 1 1 2 2 1 1 0 2 2 1 2 3 4 6 9 11 13 13 13 14 13 14 13
4 3 3 4 4 4 3 2 1 3 4 5 5 5 5 4 2 2 2 2 2 2 2 2 1 1 1 3 3 2 2 1 2 3 5 6 8 9 12 13 12 13 12
4 3 4 5 5 4 4 4 3 3 4 5 5 5 5 5 5 5 4 3 3 2 2 2 1 0 0 1 1 1 2 3 3 1 1 2 2 3 5 8 10 12 13
3 3 3 4 5 4 5 5 3 4 4 4 5 5 5 6 5 8 9 7 5 2 3 2 1 1 1 2 2 3 1 2 2 4 5 4 1 2 3 4 10 12 11
2 2 2 3 4 4 7 9 8 4 4 4 5 4 4 5 6 5 6 6 6 6 4 2 3 1 1 1 2 3 2 2 3 1 3 3 2 2 3 4 8 10 11
0 1 1 0 2 3 4 7 9 5 5 5 5 4 4 5 5 5 4 5 4 4 4 2 2 2 0 2 2 2 2 4 5 3 2 4 3 2 4 4 10 13 9
4 4 2 1 1 3 5 3 6 5 4 5 4 3 2 4 6 7 6 5 5 5 6 7 4 0 3 4 3 2 3 3 2 1 1 2 2 3 3 2 4 10 9
1 4 3 2 3 2 2 4 5 4 3 2 2 3 3 3 6 7 5 4 5 4 5 6 5 4 3 2 1 2 2 2 2 1 2 2 3 3 4 3 3 4 4
Wind_Direction
191 208 198 208 213 210 223 221 217 229 238 244 244 224 217 216 222 230 227 237 235 233 235 218 213 209 200 201 207 203 192 181 176 173 168 175 169 167 164 174 171 154 142
158 169 164 201 218 214 212 207 203 208 234 242 238 232 242 240 235 234 230 237 240 234 233 235 233 214 209 203 211 207 197 183 182 181 174 175 175 173 172 178 170 157 152
168 169 167 190 194 192 193 180 185 174 178 238 275 282 270 260 261 260 250 243 248 247 241 238 238 222 218 212 211 209 197 184 187 184 178 176 178 177 180 179 176 165 160
174 172 178 182 176 141 142 168 190 206 237 257 278 295 292 284 272 266 265 257 240 239 246 243 235 226 222 220 218 213 200 192 195 189 184 179 177 179 186 186 185 171 163
180 171 181 170 159 148 157 178 199 201 217 247 260 267 283 286 285 281 288 285 276 255 231 245 241 228 222 224 225 221 212 199 200 195 187 181 177 181 191 193 189 178 170
192 168 169 168 157 159 185 205 196 211 203 216 249 269 293 313 331 340 313 309 303 291 264 245 253 238 225 223 228 229 224 203 199 193 185 182 180 186 190 194 191 185 184
209 167 160 171 170 174 191 204 188 202 220 190 145 315 306 312 322 323 323 328 321 323 321 281 253 246 233 217 218 223 212 193 187 186 182 186 186 188 189 190 191 195 198
190 167 170 181 183 168 186 202 181 179 224 212 175 159 309 304 290 311 336 346 328 310 313 314 297 264 261 204 190 189 195 208 197 197 191 186 188 182 188 195 196 202 203
187 179 190 190 184 180 199 211 201 188 207 238 218 182 219 269 307 315 318 342 328 309 326 338 338 330 305 254 189 174 189 194 200 197 184 177 180 178 188 201 200 204 210
192 188 190 183 182 192 217 221 209 187 177 221 237 230 231 223 230 292 302 324 336 327 333 14 12 348 343 314 173 171 190 197 201 183 171 181 181 180 195 205 206 209 215
189 151 175 167 166 184 215 232 214 194 191 189 206 232 233 253 235 218 278 309 324 318 317 326 340 337 353 351 156 153 147 147 177 172 169 182 187 194 208 214 218 220 223
84 77 77 120 154 202 220 231 231 206 207 176 176 219 205 182 208 202 212 269 293 294 285 296 279 319 18 24 118 119 107 89 116 174 169 176 193 205 217 223 226 228 231
88 61 43 22 271 261 260 245 230 224 217 152 173 215 213 188 173 182 153 205 268 282 284 274 253 236 104 75 111 133 153 85 179 203 201 206 201 207 214 222 229 234 237
100 20 354 326 302 278 267 258 236 241 231 182 190 195 211 229 199 179 182 156 289 294 293 285 268 224 188 143 155 157 176 208 215 219 215 221 217 216 216 219 225 233 240
90 63 29 337 359 18 2 298 262 263 241 206 207 204 211 230 242 200 200 154 165 243 280 279 264 244 202 160 179 174 186 200 201 210 217 223 226 227 228 228 227 229 235
356 212 59 350 4 24 25 26 351 304 260 229 213 215 221 212 220 213 228 185 166 175 207 349 321 294 219 155 180 198 210 192 211 218 225 231 233 233 237 238 235 232 232
36 37 34 26 14 1 349 338 344 350 304 227 211 210 208 193 209 192 190 180 193 178 121 12 353 13 41 56 26 195 186 206 231 231 227 230 233 233 234 236 238 238 233
67 54 39 40 26 20 24 14 355 356 33 29 244 212 211 203 213 200 174 181 199 182 112 85 331 17 46 15 296 249 229 216 216 226 221 223 227 232 236 239 244 245 237
63 53 44 39 38 41 30 15 357 38 59 46 30 103 106 133 239 205 178 176 191 111 101 126 259 304 316 26 356 299 259 250 241 230 225 224 224 225 231 238 242 245 245
72 62 51 35 32 32 26 16 74 76 70 62 55 62 71 76 53 50 100 146 169 144 138 132 139 302 21 42 12 360 357 347 265 229 227 218 213 216 228 234 241 249 253
77 70 47 39 33 30 17 10 54 74 69 69 64 53 51 56 66 67 72 86 149 152 125 119 145 137 26 16 304 276 11 4 321 22 308 235 209 211 223 222 232 239 244
95 70 55 52 33 24 30 36 50 66 65 71 71 53 39 27 42 74 72 62 62 103 115 120 102 333 268 254 279 277 308 71 352 21 356 342 340 261 243 224 229 234 240
117 79 46 45 27 16 50 61 67 65 69 61 60 50 36 13 18 49 80 73 56 58 80 114 111 109 326 287 305 298 282 216 188 1 346 314 357 315 283 265 278 279 263
65 219 238 96 8 341 35 87 93 83 70 62 58 57 55 33 23 38 56 53 35 36 37 48 98 119 185 307 318 326 330 333 358 18 352 292 328 312 326 350 356 349 350
231 232 222 199 189 314 343 61 118 101 81 65 50 42 59 61 40 59 68 53 34 11 359 3 5 269 222 255 277 4 21 23 344 261 303 297 322 306 301 322 4 23 32
202 189 202 206 201 225 344 78 138 125 111 88 56 19 10 56 62 65 79 74 51 0 354 3 3 6 18 359 333 32 60 46 358 332 333 341 338 349 326 330 0 19 21